Time,TemperatureF,DewpointF,PressureIn,WindDirection,WindDirectionDegrees,WindSpeedMPH,WindSpeedGustMPH,Humidity,HourlyPrecipIn,Conditions,Clouds,dailyrainin,SoftwareType,DateUTC
2013-03-01 00:00:00,36.3,35.1,-100.00,NNW,334,0.0,0.0,95,0.00,,,0.00,meteohub,2013-03-01 05:00:00,
2013-03-01 00:02:00,36.0,34.7,-100.00,NNW,334,0.0,0.0,95,0.00,,,0.00,meteohub,2013-03-01 05:02:00,
2013-03-01 00:04:00,36.3,35.2,-100.00,NNW,334,0.0,0.0,96,0.00,,,0.00,meteohub,2013-03-01 05:04:00,
2013-03-01 00:06:00,37.0,36.0,-100.00,NNW,334,0.0,0.0,96,0.00,,,0.00,meteohub,2013-03-01 05:06:00,
2013-03-01 00:11:00,37.8,36.7,-100.00,North,7,0.0,2.0,96,0.00,,,0.00,meteohub,2013-03-01 05:11:00,
2013-03-01 00:16:00,37.6,36.5,-100.00,North,7,0.0,2.0,96,0.00,,,0.00,meteohub,2013-03-01 05:16:00,
2013-03-01 00:21:00,38.1,37.4,-100.00,NNE,12,0.0,2.0,97,0.00,,,0.00,meteohub,2013-03-01 05:21:00,
2013-03-01 00:26:00,37.6,36.9,-100.00,NNE,12,0.0,1.0,97,0.00,,,0.00,meteohub,2013-03-01 05:26:00,
2013-03-01 00:32:00,36.9,36.1,-100.00,NNE,12,0.0,1.0,97,0.00,,,0.00,meteohub,2013-03-01 05:32:00,
2013-03-01 00:37:00,35.2,34.5,-100.00,NNW,327,2.0,4.0,97,0.00,,,0.00,meteohub,2013-03-01 05:37:00,
2013-03-01 00:42:00,35.8,35.1,-100.00,NNW,330,3.0,4.0,97,0.00,,,0.00,meteohub,2013-03-01 05:42:00,
2013-03-01 00:47:00,35.1,34.3,-100.00,NE,43,0.0,5.0,97,0.00,,,0.00,meteohub,2013-03-01 05:47:00,
2013-03-01 00:52:00,35.1,34.3,-100.00,North,358,2.0,5.0,97,0.00,,,0.00,meteohub,2013-03-01 05:52:00,
2013-03-01 00:57:00,35.2,34.5,-100.00,NNE,32,7.0,7.0,97,0.00,,,0.00,meteohub,2013-03-01 05:57:00,
2013-03-01 01:02:00,34.7,34.0,-100.00,NNE,32,3.0,9.0,97,0.00,,,0.00,meteohub,2013-03-01 06:02:00,
2013-03-01 01:07:00,35.4,34.3,-100.00,North,355,3.0,9.0,96,0.00,,,0.00,meteohub,2013-03-01 06:07:00,
2013-03-01 01:12:00,35.1,34.0,-100.00,North,7,1.0,9.0,96,0.00,,,0.00,meteohub,2013-03-01 06:12:00,
2013-03-01 01:17:00,35.1,34.0,-100.00,NE,40,1.0,6.0,96,0.00,,,0.00,meteohub,2013-03-01 06:17:00,
2013-03-01 01:22:00,35.1,34.0,-100.00,NW,324,2.0,6.0,96,0.00,,,0.00,meteohub,2013-03-01 06:22:00,
2013-03-01 01:27:00,35.2,34.0,-100.00,NNE,15,1.0,5.0,95,0.00,,,0.00,meteohub,2013-03-01 06:27:00,
2013-03-01 01:32:00,35.4,34.2,-100.00,NW,326,3.0,6.0,95,0.00,,,0.00,meteohub,2013-03-01 06:32:00,
2013-03-01 01:37:00,35.2,34.0,-100.00,NNW,348,3.0,6.0,95,0.00,,,0.00,meteohub,2013-03-01 06:37:00,
2013-03-01 01:42:00,35.1,33.8,-100.00,NNW,336,2.0,6.0,95,0.00,,,0.00,meteohub,2013-03-01 06:42:00,
2013-03-01 01:47:00,35.2,34.0,-100.00,NW,317,1.0,6.0,95,0.00,,,0.00,meteohub,2013-03-01 06:47:00,
2013-03-01 01:52:00,35.8,34.5,-100.00,NNW,333,0.0,6.0,95,0.00,,,0.00,meteohub,2013-03-01 06:52:00,
2013-03-01 01:57:00,35.4,34.2,-100.00,NNE,16,0.0,6.0,95,0.00,,,0.00,meteohub,2013-03-01 06:57:00,
2013-03-01 02:02:00,35.2,34.0,-100.00,NNE,22,2.0,6.0,95,0.00,,,0.00,meteohub,2013-03-01 07:02:00,
2013-03-01 02:07:00,35.8,34.5,-100.00,NW,323,0.0,6.0,95,0.00,,,0.00,meteohub,2013-03-01 07:07:00,
2013-03-01 02:12:00,35.6,34.3,-100.00,NW,323,0.0,6.0,95,0.00,,,0.00,meteohub,2013-03-01 07:12:00,
2013-03-01 02:17:00,35.2,33.6,-100.00,NW,323,0.0,4.0,94,0.00,,,0.00,meteohub,2013-03-01 07:17:00,
2013-03-01 02:22:00,35.4,33.8,-100.00,NNW,333,2.0,0.0,94,0.00,,,0.00,meteohub,2013-03-01 07:22:00,
2013-03-01 02:27:00,35.2,33.6,-100.00,North,2,2.0,4.0,94,0.00,,,0.00,meteohub,2013-03-01 07:27:00,
2013-03-01 02:32:00,35.4,33.8,-100.00,NE,37,0.0,4.0,94,0.00,,,0.00,meteohub,2013-03-01 07:32:00,
2013-03-01 02:38:00,34.9,33.3,-100.00,NW,315,2.0,4.0,94,0.00,,,0.00,meteohub,2013-03-01 07:38:00,
2013-03-01 02:43:00,35.2,33.6,-100.00,NW,322,0.0,4.0,94,0.00,,,0.00,meteohub,2013-03-01 07:43:00,
2013-03-01 02:48:00,35.1,33.4,-100.00,NW,323,0.0,3.0,94,0.00,,,0.00,meteohub,2013-03-01 07:48:00,
2013-03-01 02:53:00,34.7,33.1,-100.00,NNW,340,0.0,4.0,94,0.00,,,0.00,meteohub,2013-03-01 07:53:00,
2013-03-01 02:58:00,35.2,33.6,-100.00,NNW,340,0.0,4.0,94,0.00,,,0.00,meteohub,2013-03-01 07:58:00,
2013-03-01 03:03:00,35.1,33.4,-100.00,NNW,340,0.0,4.0,94,0.00,,,0.00,meteohub,2013-03-01 08:03:00,
2013-03-01 03:08:00,34.5,32.9,-100.00,NNW,327,0.0,2.0,94,0.00,,,0.00,meteohub,2013-03-01 08:08:00,
2013-03-01 03:13:00,35.2,33.6,-100.00,NNW,341,1.0,2.0,94,0.00,,,0.00,meteohub,2013-03-01 08:13:00,
2013-03-01 03:18:00,36.1,34.5,-100.00,WNW,302,0.0,2.0,94,0.00,,,0.00,meteohub,2013-03-01 08:18:00,
2013-03-01 03:23:00,35.2,33.6,-100.00,WNW,302,0.0,2.0,94,0.00,,,0.00,meteohub,2013-03-01 08:23:00,
2013-03-01 03:28:00,34.5,32.9,-100.00,WNW,302,0.0,2.0,94,0.00,,,0.00,meteohub,2013-03-01 08:28:00,
2013-03-01 03:33:00,35.2,33.6,-100.00,North,5,1.0,0.0,94,0.00,,,0.00,meteohub,2013-03-01 08:33:00,
2013-03-01 03:38:00,34.5,32.9,-100.00,NNW,337,0.0,4.0,94,0.00,,,0.00,meteohub,2013-03-01 08:38:00,
2013-03-01 03:43:00,34.9,33.3,-100.00,NNE,15,3.0,6.0,94,0.00,,,0.00,meteohub,2013-03-01 08:43:00,
2013-03-01 03:49:00,35.2,33.6,-100.00,NNW,338,3.0,6.0,94,0.00,,,0.00,meteohub,2013-03-01 08:49:00,
2013-03-01 03:54:00,34.5,32.9,-100.00,NNW,336,3.0,6.0,94,0.00,,,0.00,meteohub,2013-03-01 08:54:00,
2013-03-01 03:59:00,35.2,33.6,-100.00,NNW,338,2.0,6.0,94,0.00,,,0.00,meteohub,2013-03-01 08:59:00,
2013-03-01 04:04:00,35.2,33.6,-100.00,North,2,2.0,5.0,94,0.00,,,0.00,meteohub,2013-03-01 09:04:00,
2013-03-01 04:09:00,34.9,33.3,-100.00,NW,309,0.0,5.0,94,0.00,,,0.00,meteohub,2013-03-01 09:09:00,
2013-03-01 04:14:00,35.1,33.4,-100.00,NW,309,0.0,4.0,94,0.00,,,0.00,meteohub,2013-03-01 09:14:00,
2013-03-01 04:19:00,34.9,33.3,-100.00,North,354,3.0,4.0,94,0.00,,,0.00,meteohub,2013-03-01 09:19:00,
2013-03-01 04:24:00,34.5,32.9,-100.00,WNW,293,2.0,4.0,94,0.00,,,0.00,meteohub,2013-03-01 09:24:00,
2013-03-01 04:29:00,34.5,32.9,-100.00,NW,326,1.0,4.0,94,0.00,,,0.00,meteohub,2013-03-01 09:29:00,
2013-03-01 04:34:00,34.9,33.3,-100.00,NW,319,0.0,4.0,94,0.00,,,0.00,meteohub,2013-03-01 09:34:00,
2013-03-01 04:39:00,34.5,32.9,-100.00,NW,315,0.0,4.0,94,0.00,,,0.00,meteohub,2013-03-01 09:39:00,
2013-03-01 04:45:00,34.3,32.7,-100.00,North,4,2.0,4.0,94,0.00,,,0.00,meteohub,2013-03-01 09:45:00,
2013-03-01 04:50:00,34.3,32.7,-100.00,West,271,0.0,4.0,94,0.00,,,0.00,meteohub,2013-03-01 09:50:00,
2013-03-01 04:55:00,34.5,32.9,-100.00,NW,323,0.0,4.0,94,0.00,,,0.00,meteohub,2013-03-01 09:55:00,
2013-03-01 05:00:00,34.2,32.5,-100.00,NNW,337,0.0,4.0,94,0.00,,,0.00,meteohub,2013-03-01 10:00:00,
2013-03-01 05:05:00,34.2,32.9,-100.00,NW,310,4.0,4.0,95,0.00,,,0.00,meteohub,2013-03-01 10:05:00,
2013-03-01 05:10:00,34.3,33.1,-100.00,NW,319,3.0,4.0,95,0.00,,,0.00,meteohub,2013-03-01 10:10:00,
2013-03-01 05:15:00,34.2,32.9,-100.00,NW,316,2.0,5.0,95,0.00,,,0.00,meteohub,2013-03-01 10:15:00,
2013-03-01 05:20:00,35.2,34.0,-100.00,NW,306,3.0,5.0,95,0.00,,,0.00,meteohub,2013-03-01 10:20:00,
2013-03-01 05:25:00,34.5,33.4,-100.00,NW,316,0.0,5.0,96,0.00,,,0.00,meteohub,2013-03-01 10:25:00,
2013-03-01 05:30:00,34.3,33.3,-100.00,WNW,302,4.0,5.0,96,0.00,,,0.00,meteohub,2013-03-01 10:30:00,
2013-03-01 05:35:00,34.5,33.4,-100.00,NNW,343,0.0,5.0,96,0.00,,,0.00,meteohub,2013-03-01 10:35:00,
2013-03-01 05:40:00,35.6,34.5,-100.00,NNW,343,0.0,5.0,96,0.00,,,0.00,meteohub,2013-03-01 10:40:00,
2013-03-01 05:46:00,36.0,34.9,-100.00,WNW,286,4.0,4.0,96,0.00,,,0.00,meteohub,2013-03-01 10:46:00,
2013-03-01 05:51:00,34.3,33.3,-100.00,NW,316,4.0,5.0,96,0.00,,,0.00,meteohub,2013-03-01 10:51:00,
2013-03-01 05:56:00,33.8,32.7,-100.00,WNW,289,3.0,5.0,96,0.00,,,0.00,meteohub,2013-03-01 10:56:00,
2013-03-01 06:01:00,33.8,32.7,-100.00,NW,324,4.0,5.0,96,0.00,,,0.00,meteohub,2013-03-01 11:01:00,
2013-03-01 06:06:00,33.3,32.2,-100.00,North,11,4.0,5.0,96,0.00,,,0.00,meteohub,2013-03-01 11:06:00,
2013-03-01 06:11:00,33.3,32.2,-100.00,NW,319,2.0,7.0,96,0.00,,,0.00,meteohub,2013-03-01 11:11:00,
2013-03-01 06:16:00,33.3,32.0,-100.00,NW,316,4.0,7.0,95,0.00,,,0.00,meteohub,2013-03-01 11:16:00,
2013-03-01 06:22:00,33.4,31.8,-100.00,NW,326,3.0,7.0,94,0.00,,,0.00,meteohub,2013-03-01 11:22:00,
2013-03-01 06:27:00,34.0,32.2,-100.00,NNE,22,3.0,6.0,93,0.00,,,0.00,meteohub,2013-03-01 11:27:00,
2013-03-01 06:32:00,34.0,31.8,-100.00,NNW,348,3.0,6.0,92,0.00,,,0.00,meteohub,2013-03-01 11:32:00,
2013-03-01 06:37:00,34.0,31.8,-100.00,NW,326,6.0,6.0,92,0.00,,,0.00,meteohub,2013-03-01 11:37:00,
2013-03-01 06:42:00,34.0,31.6,-100.00,North,350,4.0,7.0,91,0.00,,,0.00,meteohub,2013-03-01 11:42:00,
2013-03-01 06:47:00,34.3,32.0,-100.00,NW,313,2.0,7.0,91,0.00,,,0.00,meteohub,2013-03-01 11:47:00,
2013-03-01 06:52:00,34.3,31.6,-100.00,NW,315,6.0,8.0,90,0.00,,,0.00,meteohub,2013-03-01 11:52:00,
2013-03-01 06:57:00,34.5,31.6,-100.00,NNW,348,9.0,10.0,89,0.00,,,0.00,meteohub,2013-03-01 11:57:00,
2013-03-01 07:02:00,34.0,31.1,-100.00,North,0,6.0,10.0,89,0.00,,,0.00,meteohub,2013-03-01 12:02:00,
2013-03-01 07:07:00,34.7,31.8,-100.00,NNE,15,5.0,10.0,89,0.00,,,0.00,meteohub,2013-03-01 12:07:00,
2013-03-01 07:12:00,34.7,31.8,-100.00,NNW,341,5.0,11.0,89,0.00,,,0.00,meteohub,2013-03-01 12:12:00,
2013-03-01 07:17:00,34.3,31.5,-100.00,North,354,5.0,11.0,89,0.00,,,0.00,meteohub,2013-03-01 12:17:00,
2013-03-01 07:22:00,34.5,31.6,-100.00,NW,323,4.0,11.0,89,0.00,,,0.00,meteohub,2013-03-01 12:22:00,
2013-03-01 07:27:00,34.9,32.0,-100.00,NNW,334,2.0,11.0,89,0.00,,,0.00,meteohub,2013-03-01 12:27:00,
2013-03-01 07:32:00,35.4,32.2,-100.00,NNW,344,4.0,11.0,88,0.00,,,0.00,meteohub,2013-03-01 12:32:00,
2013-03-01 07:37:00,35.2,31.8,-100.00,North,358,9.0,11.0,87,0.00,,,0.00,meteohub,2013-03-01 12:37:00,
2013-03-01 07:42:00,35.4,31.6,-100.00,WNW,295,8.0,11.0,86,0.00,,,0.00,meteohub,2013-03-01 12:42:00,
2013-03-01 07:47:00,34.7,30.7,-100.00,NNW,327,7.0,11.0,85,0.00,,,0.00,meteohub,2013-03-01 12:47:00,
2013-03-01 07:52:00,35.2,31.1,-100.00,NNW,344,5.0,11.0,85,0.00,,,0.00,meteohub,2013-03-01 12:52:00,
2013-03-01 07:57:00,35.1,31.3,-100.00,NNW,344,5.0,11.0,86,0.00,,,0.00,meteohub,2013-03-01 12:57:00,
2013-03-01 08:02:00,36.7,33.3,-100.00,NNW,338,5.0,11.0,87,0.00,,,0.00,meteohub,2013-03-01 13:02:00,
2013-03-01 08:07:00,34.9,31.1,-100.00,NNW,333,7.0,11.0,86,0.00,,,0.00,meteohub,2013-03-01 13:07:00,
2013-03-01 08:12:00,35.1,30.9,-100.00,NW,326,8.0,10.0,85,0.00,,,0.00,meteohub,2013-03-01 13:12:00,
2013-03-01 08:17:00,35.8,31.5,-100.00,WNW,291,2.0,13.0,84,0.00,,,0.00,meteohub,2013-03-01 13:17:00,
2013-03-01 08:22:00,36.0,31.6,-100.00,North,354,5.0,13.0,84,0.00,,,0.00,meteohub,2013-03-01 13:22:00,
2013-03-01 08:27:00,35.6,30.9,-100.00,NNW,333,8.0,13.0,83,0.00,,,0.00,meteohub,2013-03-01 13:27:00,
2013-03-01 08:32:00,34.2,29.3,-100.00,NNW,329,4.0,17.0,82,0.00,,,0.00,meteohub,2013-03-01 13:32:00,
2013-03-01 08:38:00,36.0,30.9,-100.00,NNW,345,5.0,17.0,82,0.00,,,0.00,meteohub,2013-03-01 13:38:00,
2013-03-01 08:43:00,35.1,29.8,-100.00,WNW,303,8.0,17.0,81,0.00,,,0.00,meteohub,2013-03-01 13:43:00,
2013-03-01 08:48:00,36.0,30.0,-100.00,North,1,4.0,13.0,79,0.00,,,0.00,meteohub,2013-03-01 13:48:00,
2013-03-01 08:53:00,35.1,29.5,-100.00,North,11,7.0,16.0,80,0.00,,,0.00,meteohub,2013-03-01 13:53:00,
2013-03-01 08:58:00,35.1,29.5,-100.00,NW,322,4.0,16.0,80,0.00,,,0.00,meteohub,2013-03-01 13:58:00,
2013-03-01 09:03:00,36.1,30.2,-100.00,NNE,19,4.0,16.0,79,0.00,,,0.00,meteohub,2013-03-01 14:03:00,
2013-03-01 09:08:00,36.7,30.6,-100.00,NW,306,4.0,16.0,78,0.00,,,0.00,meteohub,2013-03-01 14:08:00,
2013-03-01 09:13:00,36.0,30.0,-100.00,NE,36,2.0,14.0,79,0.00,,,0.00,meteohub,2013-03-01 14:13:00,
2013-03-01 09:18:00,37.0,30.7,-100.00,NNW,327,2.0,14.0,78,0.00,,,0.00,meteohub,2013-03-01 14:18:00,
2013-03-01 09:23:00,37.0,30.7,-100.00,NNW,344,4.0,14.0,78,0.00,,,0.00,meteohub,2013-03-01 14:23:00,
2013-03-01 09:28:00,36.1,29.7,-100.00,NNE,33,6.0,10.0,77,0.00,,,0.00,meteohub,2013-03-01 14:28:00,
2013-03-01 09:33:00,37.4,30.9,-100.00,NNW,343,0.0,11.0,77,0.00,,,0.00,meteohub,2013-03-01 14:33:00,
2013-03-01 09:38:00,36.3,29.5,-100.00,ENE,67,3.0,11.0,76,0.00,,,0.00,meteohub,2013-03-01 14:38:00,
2013-03-01 09:43:00,38.5,31.3,-100.00,NNE,26,0.0,11.0,75,0.00,,,0.00,meteohub,2013-03-01 14:43:00,
2013-03-01 09:48:00,37.4,29.8,-100.00,NE,43,6.0,10.0,74,0.00,,,0.00,meteohub,2013-03-01 14:48:00,
2013-03-01 09:53:00,37.8,29.8,-100.00,South,185,5.0,10.0,73,0.00,,,0.00,meteohub,2013-03-01 14:53:00,
2013-03-01 09:59:00,38.1,29.5,-100.00,North,7,7.0,11.0,71,0.00,,,0.00,meteohub,2013-03-01 14:59:00,
2013-03-01 10:04:00,38.1,29.5,-100.00,NE,49,5.0,11.0,71,0.00,,,0.00,meteohub,2013-03-01 15:04:00,
2013-03-01 10:09:00,38.7,29.7,-100.00,NE,53,8.0,11.0,70,0.00,,,0.00,meteohub,2013-03-01 15:09:00,
2013-03-01 10:14:00,39.9,30.9,-100.00,NNE,18,4.0,11.0,70,0.00,,,0.00,meteohub,2013-03-01 15:14:00,
2013-03-01 10:19:00,40.3,29.8,-100.00,ENE,57,6.0,9.0,66,0.00,,,0.00,meteohub,2013-03-01 15:19:00,
2013-03-01 10:24:00,39.0,27.9,-100.00,North,4,4.0,12.0,64,0.00,,,0.00,meteohub,2013-03-01 15:24:00,
2013-03-01 10:29:00,39.9,28.4,-100.00,NW,324,5.0,12.0,63,0.00,,,0.00,meteohub,2013-03-01 15:29:00,
2013-03-01 10:34:00,40.5,28.9,-100.00,North,354,4.0,12.0,63,0.00,,,0.00,meteohub,2013-03-01 15:34:00,
2013-03-01 10:39:00,40.3,28.8,-100.00,NNW,338,7.0,16.0,63,0.00,,,0.00,meteohub,2013-03-01 15:39:00,
2013-03-01 10:44:00,40.5,28.9,-100.00,NNE,14,0.0,16.0,63,0.00,,,0.00,meteohub,2013-03-01 15:44:00,
2013-03-01 10:49:00,40.6,29.1,-100.00,NNE,14,2.0,16.0,63,0.00,,,0.00,meteohub,2013-03-01 15:49:00,
2013-03-01 10:54:00,40.5,28.4,-100.00,NNW,337,9.0,11.0,62,0.00,,,0.00,meteohub,2013-03-01 15:54:00,
2013-03-01 10:59:00,39.4,27.5,-100.00,North,5,5.0,11.0,62,0.00,,,0.00,meteohub,2013-03-01 15:59:00,
2013-03-01 11:04:00,40.3,28.8,-100.00,NW,322,6.0,13.0,63,0.00,,,0.00,meteohub,2013-03-01 16:04:00,
2013-03-01 11:09:00,39.9,27.5,-100.00,North,358,6.0,13.0,61,0.00,,,0.00,meteohub,2013-03-01 16:09:00,
2013-03-01 11:14:00,39.9,28.4,-100.00,NNE,28,5.0,13.0,63,0.00,,,0.00,meteohub,2013-03-01 16:14:00,
2013-03-01 11:20:00,40.5,28.0,-100.00,NNW,341,5.0,11.0,61,0.00,,,0.00,meteohub,2013-03-01 16:20:00,
2013-03-01 11:25:00,39.7,27.9,-100.00,North,2,3.0,12.0,62,0.00,,,0.00,meteohub,2013-03-01 16:25:00,
2013-03-01 11:30:00,39.7,27.9,-100.00,NW,309,5.0,12.0,62,0.00,,,0.00,meteohub,2013-03-01 16:30:00,
2013-03-01 11:35:00,39.4,27.9,-100.00,NE,52,7.0,12.0,63,0.00,,,0.00,meteohub,2013-03-01 16:35:00,
2013-03-01 11:40:00,40.3,28.2,-100.00,NNW,344,3.0,11.0,62,0.00,,,0.00,meteohub,2013-03-01 16:40:00,
2013-03-01 11:45:00,39.7,27.9,-100.00,NW,305,6.0,11.0,62,0.00,,,0.00,meteohub,2013-03-01 16:45:00,
2013-03-01 11:50:00,40.3,28.2,-100.00,ENE,63,1.0,11.0,62,0.00,,,0.00,meteohub,2013-03-01 16:50:00,
2013-03-01 11:55:00,39.7,27.9,-100.00,NNW,336,2.0,12.0,62,0.00,,,0.00,meteohub,2013-03-01 16:55:00,
2013-03-01 12:00:00,37.9,26.1,-100.00,North,1,6.0,12.0,62,0.00,,,0.00,meteohub,2013-03-01 17:00:00,
2013-03-01 12:05:00,40.3,28.8,-100.00,NNW,347,3.0,12.0,63,0.00,,,0.00,meteohub,2013-03-01 17:05:00,
2013-03-01 12:10:00,39.7,28.2,-100.00,WNW,300,2.0,10.0,63,0.00,,,0.00,meteohub,2013-03-01 17:10:00,
2013-03-01 12:15:00,39.7,28.2,-100.00,North,352,1.0,10.0,63,0.00,,,0.00,meteohub,2013-03-01 17:15:00,
2013-03-01 12:20:00,39.0,27.1,-100.00,NW,307,8.0,11.0,62,0.00,,,0.00,meteohub,2013-03-01 17:20:00,
2013-03-01 12:25:00,40.3,28.2,-100.00,North,350,1.0,11.0,62,0.00,,,0.00,meteohub,2013-03-01 17:25:00,
2013-03-01 12:30:00,39.7,28.2,-100.00,NNW,336,8.0,11.0,63,0.00,,,0.00,meteohub,2013-03-01 17:30:00,
2013-03-01 12:36:00,39.2,27.3,-100.00,North,358,7.0,11.0,62,0.00,,,0.00,meteohub,2013-03-01 17:36:00,
2013-03-01 12:41:00,39.2,27.3,-100.00,North,357,6.0,10.0,62,0.00,,,0.00,meteohub,2013-03-01 17:41:00,
2013-03-01 12:46:00,39.7,27.9,-100.00,North,351,2.0,12.0,62,0.00,,,0.00,meteohub,2013-03-01 17:46:00,
2013-03-01 12:51:00,40.5,28.9,-100.00,NE,37,3.0,12.0,63,0.00,,,0.00,meteohub,2013-03-01 17:51:00,
2013-03-01 12:56:00,39.7,27.9,-100.00,NNE,28,5.0,12.0,62,0.00,,,0.00,meteohub,2013-03-01 17:56:00,
2013-03-01 13:01:00,39.6,28.0,-100.00,North,8,5.0,10.0,63,0.00,,,0.00,meteohub,2013-03-01 18:01:00,
2013-03-01 13:06:00,40.3,28.8,-100.00,NNE,16,2.0,10.0,63,0.00,,,0.00,meteohub,2013-03-01 18:06:00,
2013-03-01 13:11:00,39.7,27.3,-100.00,NNW,341,7.0,12.0,61,0.00,,,0.00,meteohub,2013-03-01 18:11:00,
2013-03-01 13:16:00,39.0,27.1,-100.00,NNW,341,5.0,12.0,62,0.00,,,0.00,meteohub,2013-03-01 18:16:00,
2013-03-01 13:21:00,38.8,27.0,-100.00,North,351,4.0,12.0,62,0.00,,,0.00,meteohub,2013-03-01 18:21:00,
2013-03-01 13:26:00,39.0,26.8,-100.00,NNW,341,6.0,11.0,61,0.00,,,0.00,meteohub,2013-03-01 18:26:00,
2013-03-01 13:31:00,40.1,27.7,-100.00,WNW,296,4.0,11.0,61,0.00,,,0.00,meteohub,2013-03-01 18:31:00,
2013-03-01 13:36:00,40.3,27.1,-100.00,North,4,6.0,12.0,59,0.00,,,0.00,meteohub,2013-03-01 18:36:00,
2013-03-01 13:41:00,40.6,27.5,-100.00,NW,323,6.0,12.0,59,0.00,,,0.00,meteohub,2013-03-01 18:41:00,
2013-03-01 13:47:00,40.3,27.9,-100.00,NW,323,8.0,12.0,61,0.00,,,0.00,meteohub,2013-03-01 18:47:00,
2013-03-01 13:52:00,39.7,27.3,-100.00,North,358,4.0,12.0,61,0.00,,,0.00,meteohub,2013-03-01 18:52:00,
2013-03-01 13:57:00,39.4,27.1,-100.00,ENE,78,5.0,12.0,61,0.00,,,0.00,meteohub,2013-03-01 18:57:00,
2013-03-01 14:02:00,39.9,27.1,-100.00,East,88,3.0,11.0,60,0.00,,,0.00,meteohub,2013-03-01 19:02:00,
2013-03-01 14:07:00,39.9,27.5,-100.00,NNW,345,9.0,11.0,61,0.00,,,0.00,meteohub,2013-03-01 19:07:00,
2013-03-01 14:12:00,39.7,28.2,-100.00,NNW,334,5.0,11.0,63,0.00,,,0.00,meteohub,2013-03-01 19:12:00,
2013-03-01 14:17:00,38.8,27.7,-100.00,North,5,2.0,11.0,64,0.00,,,0.00,meteohub,2013-03-01 19:17:00,
2013-03-01 14:22:00,38.7,27.5,-100.00,NNE,16,1.0,11.0,64,0.00,,,0.00,meteohub,2013-03-01 19:22:00,
2013-03-01 14:27:00,38.5,27.7,-100.00,NNW,343,6.0,14.0,65,0.00,,,0.00,meteohub,2013-03-01 19:27:00,
2013-03-01 14:32:00,38.1,27.3,-100.00,NNW,341,7.0,14.0,65,0.00,,,0.00,meteohub,2013-03-01 19:32:00,
2013-03-01 14:37:00,38.5,28.0,-100.00,North,8,6.0,14.0,66,0.00,,,0.00,meteohub,2013-03-01 19:37:00,
2013-03-01 14:42:00,38.1,27.3,-100.00,NW,313,5.0,11.0,65,0.00,,,0.00,meteohub,2013-03-01 19:42:00,
2013-03-01 14:47:00,38.7,27.9,-100.00,North,358,4.0,11.0,65,0.00,,,0.00,meteohub,2013-03-01 19:47:00,
2013-03-01 14:52:00,37.8,27.1,-100.00,NNW,340,5.0,10.0,65,0.00,,,0.00,meteohub,2013-03-01 19:52:00,
2013-03-01 14:57:00,38.1,27.3,-100.00,NW,312,4.0,10.0,65,0.00,,,0.00,meteohub,2013-03-01 19:57:00,
2013-03-01 15:03:00,38.5,27.7,-100.00,NNW,348,7.0,15.0,65,0.00,,,0.00,meteohub,2013-03-01 20:03:00,
2013-03-01 15:08:00,37.6,27.0,-100.00,North,5,3.0,15.0,65,0.00,,,0.00,meteohub,2013-03-01 20:08:00,
2013-03-01 15:13:00,37.4,26.4,-100.00,NNE,28,6.0,15.0,64,0.00,,,0.00,meteohub,2013-03-01 20:13:00,
2013-03-01 15:18:00,38.5,27.7,-100.00,NNW,341,3.0,11.0,65,0.00,,,0.00,meteohub,2013-03-01 20:18:00,
2013-03-01 15:23:00,37.0,26.4,-100.00,NW,320,5.0,10.0,65,0.00,,,0.00,meteohub,2013-03-01 20:23:00,
2013-03-01 15:28:00,37.8,27.5,-100.00,NNW,345,2.0,10.0,66,0.00,,,0.00,meteohub,2013-03-01 20:28:00,
2013-03-01 15:33:00,38.5,27.7,-100.00,NNW,333,3.0,11.0,65,0.00,,,0.00,meteohub,2013-03-01 20:33:00,
2013-03-01 15:38:00,37.0,26.4,-100.00,NNE,18,4.0,11.0,65,0.00,,,0.00,meteohub,2013-03-01 20:38:00,
2013-03-01 15:43:00,36.9,25.9,-100.00,North,355,4.0,11.0,64,0.00,,,0.00,meteohub,2013-03-01 20:43:00,
2013-03-01 15:48:00,36.9,25.9,-100.00,WNW,298,2.0,10.0,64,0.00,,,0.00,meteohub,2013-03-01 20:48:00,
2013-03-01 15:53:00,38.1,27.3,-100.00,North,1,3.0,10.0,65,0.00,,,0.00,meteohub,2013-03-01 20:53:00,
2013-03-01 15:58:00,37.8,26.6,-100.00,ENE,63,4.0,10.0,64,0.00,,,0.00,meteohub,2013-03-01 20:58:00,
2013-03-01 16:03:00,38.5,27.7,-100.00,NNW,329,3.0,10.0,65,0.00,,,0.00,meteohub,2013-03-01 21:03:00,
2013-03-01 16:08:00,37.4,26.8,-100.00,WNW,288,3.0,10.0,65,0.00,,,0.00,meteohub,2013-03-01 21:08:00,
2013-03-01 16:13:00,36.7,26.1,-100.00,WNW,296,8.0,10.0,65,0.00,,,0.00,meteohub,2013-03-01 21:13:00,
2013-03-01 16:19:00,36.0,25.0,-100.00,North,4,2.0,10.0,64,0.00,,,0.00,meteohub,2013-03-01 21:19:00,
2013-03-01 16:24:00,37.0,26.4,-100.00,NNW,340,8.0,10.0,65,0.00,,,0.00,meteohub,2013-03-01 21:24:00,
2013-03-01 16:29:00,36.1,25.9,-100.00,NW,315,4.0,12.0,66,0.00,,,0.00,meteohub,2013-03-01 21:29:00,
2013-03-01 16:34:00,36.9,26.2,-100.00,NNW,340,4.0,12.0,65,0.00,,,0.00,meteohub,2013-03-01 21:34:00,
2013-03-01 16:39:00,36.9,25.9,-100.00,NW,315,6.0,12.0,64,0.00,,,0.00,meteohub,2013-03-01 21:39:00,
2013-03-01 16:44:00,37.4,27.1,-100.00,ENE,68,6.0,9.0,66,0.00,,,0.00,meteohub,2013-03-01 21:44:00,
2013-03-01 16:49:00,36.9,26.6,-100.00,NW,313,5.0,9.0,66,0.00,,,0.00,meteohub,2013-03-01 21:49:00,
2013-03-01 16:54:00,37.0,26.8,-100.00,NNW,348,6.0,9.0,66,0.00,,,0.00,meteohub,2013-03-01 21:54:00,
2013-03-01 16:59:00,37.0,26.4,-100.00,North,352,4.0,9.0,65,0.00,,,0.00,meteohub,2013-03-01 21:59:00,
2013-03-01 17:04:00,37.0,26.8,-100.00,NE,40,5.0,8.0,66,0.00,,,0.00,meteohub,2013-03-01 22:04:00,
2013-03-01 17:10:00,36.7,26.4,-100.00,NNW,348,3.0,8.0,66,0.00,,,0.00,meteohub,2013-03-01 22:10:00,
2013-03-01 17:15:00,36.7,26.1,-100.00,North,352,1.0,8.0,65,0.00,,,0.00,meteohub,2013-03-01 22:15:00,
2013-03-01 17:20:00,37.6,27.3,-100.00,NNW,333,1.0,10.0,66,0.00,,,0.00,meteohub,2013-03-01 22:20:00,
2013-03-01 17:25:00,36.3,28.2,-100.00,North,352,4.0,10.0,72,0.00,,,0.00,meteohub,2013-03-01 22:25:00,
2013-03-01 17:30:00,36.0,25.7,-100.00,WNW,303,5.0,10.0,66,0.00,,,0.00,meteohub,2013-03-01 22:30:00,
2013-03-01 17:35:00,36.9,26.6,-100.00,North,350,3.0,11.0,66,0.00,,,0.00,meteohub,2013-03-01 22:35:00,
2013-03-01 17:40:00,37.0,26.8,-100.00,NNE,25,3.0,11.0,66,0.00,,,0.00,meteohub,2013-03-01 22:40:00,
2013-03-01 17:45:00,36.1,25.9,-100.00,NNE,29,6.0,11.0,66,0.00,,,0.00,meteohub,2013-03-01 22:45:00,
2013-03-01 17:50:00,36.3,25.7,-100.00,NNW,333,2.0,12.0,65,0.00,,,0.00,meteohub,2013-03-01 22:50:00,
2013-03-01 17:55:00,36.3,26.4,-100.00,NNE,12,1.0,12.0,67,0.00,,,0.00,meteohub,2013-03-01 22:55:00,
2013-03-01 18:00:00,36.0,25.7,-100.00,North,358,6.0,12.0,66,0.00,,,0.00,meteohub,2013-03-01 23:00:00,
2013-03-01 18:05:00,36.9,27.0,-100.00,North,354,2.0,13.0,67,0.00,,,0.00,meteohub,2013-03-01 23:05:00,
2013-03-01 18:11:00,36.0,26.1,-100.00,North,358,5.0,13.0,67,0.00,,,0.00,meteohub,2013-03-01 23:11:00,
2013-03-01 18:16:00,36.0,26.4,-100.00,NNW,343,7.0,13.0,68,0.00,,,0.00,meteohub,2013-03-01 23:16:00,
2013-03-01 18:21:00,36.9,27.0,-100.00,NW,307,2.0,12.0,67,0.00,,,0.00,meteohub,2013-03-01 23:21:00,
2013-03-01 18:26:00,36.3,27.1,-100.00,NNE,12,3.0,12.0,69,0.00,,,0.00,meteohub,2013-03-01 23:26:00,
2013-03-01 18:31:00,36.0,26.8,-100.00,NNW,340,5.0,11.0,69,0.00,,,0.00,meteohub,2013-03-01 23:31:00,
2013-03-01 18:36:00,36.9,27.7,-100.00,North,4,4.0,8.0,69,0.00,,,0.00,meteohub,2013-03-01 23:36:00,
2013-03-01 18:41:00,35.6,26.4,-100.00,NE,37,9.0,9.0,69,0.00,,,0.00,meteohub,2013-03-01 23:41:00,
2013-03-01 18:46:00,36.0,26.4,-100.00,NNW,341,4.0,12.0,68,0.00,,,0.00,meteohub,2013-03-01 23:46:00,
2013-03-01 18:51:00,36.0,26.4,-100.00,North,351,5.0,12.0,68,0.00,,,0.00,meteohub,2013-03-01 23:51:00,
2013-03-01 18:56:00,35.8,26.2,-100.00,North,2,5.0,12.0,68,0.00,,,0.00,meteohub,2013-03-01 23:56:00,
2013-03-01 19:01:00,35.4,25.9,-100.00,WNW,298,1.0,12.0,68,0.00,,,0.00,meteohub,2013-03-02 00:01:00,
2013-03-01 19:06:00,36.3,26.8,-100.00,NNW,329,4.0,12.0,68,0.00,,,0.00,meteohub,2013-03-02 00:06:00,
2013-03-01 19:11:00,35.8,26.2,-100.00,ESE,108,2.0,10.0,68,0.00,,,0.00,meteohub,2013-03-02 00:11:00,
2013-03-01 19:16:00,36.3,27.1,-100.00,North,354,7.0,10.0,69,0.00,,,0.00,meteohub,2013-03-02 00:16:00,
2013-03-01 19:21:00,35.2,26.1,-100.00,NNW,331,4.0,9.0,69,0.00,,,0.00,meteohub,2013-03-02 00:21:00,
2013-03-01 19:27:00,36.3,27.5,-100.00,North,352,5.0,9.0,70,0.00,,,0.00,meteohub,2013-03-02 00:27:00,
2013-03-01 19:32:00,35.8,27.0,-100.00,North,358,4.0,9.0,70,0.00,,,0.00,meteohub,2013-03-02 00:32:00,
2013-03-01 19:37:00,35.6,26.4,-100.00,NNW,343,2.0,8.0,69,0.00,,,0.00,meteohub,2013-03-02 00:37:00,
2013-03-01 19:42:00,35.2,26.4,-100.00,North,351,3.0,8.0,70,0.00,,,0.00,meteohub,2013-03-02 00:42:00,
2013-03-01 19:47:00,35.4,26.6,-100.00,NW,323,4.0,8.0,70,0.00,,,0.00,meteohub,2013-03-02 00:47:00,
2013-03-01 19:52:00,35.2,26.8,-100.00,NNW,340,4.0,8.0,71,0.00,,,0.00,meteohub,2013-03-02 00:52:00,
2013-03-01 19:57:00,35.6,26.8,-100.00,NNW,347,4.0,8.0,70,0.00,,,0.00,meteohub,2013-03-02 00:57:00,
2013-03-01 20:02:00,35.1,26.2,-100.00,NNE,12,4.0,8.0,70,0.00,,,0.00,meteohub,2013-03-02 01:02:00,
2013-03-01 20:07:00,35.1,26.6,-100.00,North,350,2.0,7.0,71,0.00,,,0.00,meteohub,2013-03-02 01:07:00,
2013-03-01 20:12:00,34.5,26.1,-100.00,NNW,347,4.0,7.0,71,0.00,,,0.00,meteohub,2013-03-02 01:12:00,
2013-03-01 20:17:00,34.7,26.2,-100.00,NNE,21,3.0,7.0,71,0.00,,,0.00,meteohub,2013-03-02 01:17:00,
2013-03-01 20:22:00,35.1,26.6,-100.00,NNW,340,4.0,8.0,71,0.00,,,0.00,meteohub,2013-03-02 01:22:00,
2013-03-01 20:27:00,34.5,26.1,-100.00,North,352,3.0,8.0,71,0.00,,,0.00,meteohub,2013-03-02 01:27:00,
2013-03-01 20:32:00,34.9,26.4,-100.00,North,352,2.0,8.0,71,0.00,,,0.00,meteohub,2013-03-02 01:32:00,
2013-03-01 20:37:00,34.3,25.9,-100.00,NW,324,3.0,7.0,71,0.00,,,0.00,meteohub,2013-03-02 01:37:00,
2013-03-01 20:42:00,34.9,26.4,-100.00,NW,306,5.0,7.0,71,0.00,,,0.00,meteohub,2013-03-02 01:42:00,
2013-03-01 20:47:00,34.2,25.7,-100.00,North,350,5.0,10.0,71,0.00,,,0.00,meteohub,2013-03-02 01:47:00,
2013-03-01 20:52:00,36.0,27.5,-100.00,North,354,4.0,10.0,71,0.00,,,0.00,meteohub,2013-03-02 01:52:00,
2013-03-01 20:57:00,35.1,26.6,-100.00,NNW,336,3.0,10.0,71,0.00,,,0.00,meteohub,2013-03-02 01:57:00,
2013-03-01 21:02:00,34.3,25.9,-100.00,NNW,338,4.0,7.0,71,0.00,,,0.00,meteohub,2013-03-02 02:02:00,
2013-03-01 21:07:00,34.5,26.1,-100.00,North,352,4.0,8.0,71,0.00,,,0.00,meteohub,2013-03-02 02:07:00,
2013-03-01 21:12:00,34.9,26.4,-100.00,North,358,5.0,8.0,71,0.00,,,0.00,meteohub,2013-03-02 02:12:00,
2013-03-01 21:17:00,34.5,26.4,-100.00,North,8,2.0,8.0,72,0.00,,,0.00,meteohub,2013-03-02 02:17:00,
2013-03-01 21:22:00,34.5,26.4,-100.00,North,4,4.0,7.0,72,0.00,,,0.00,meteohub,2013-03-02 02:22:00,
2013-03-01 21:27:00,34.5,26.4,-100.00,NNW,343,3.0,8.0,72,0.00,,,0.00,meteohub,2013-03-02 02:27:00,
2013-03-01 21:32:00,34.3,26.2,-100.00,NW,313,4.0,8.0,72,0.00,,,0.00,meteohub,2013-03-02 02:32:00,
2013-03-01 21:37:00,34.5,26.4,-100.00,North,352,2.0,8.0,72,0.00,,,0.00,meteohub,2013-03-02 02:37:00,
2013-03-01 21:42:00,34.3,26.6,-100.00,NNE,21,3.0,5.0,73,0.00,,,0.00,meteohub,2013-03-02 02:42:00,
2013-03-01 21:47:00,34.3,26.6,-100.00,NNW,334,6.0,7.0,73,0.00,,,0.00,meteohub,2013-03-02 02:47:00,
2013-03-01 21:52:00,34.3,26.6,-100.00,NW,326,4.0,8.0,73,0.00,,,0.00,meteohub,2013-03-02 02:52:00,
2013-03-01 21:57:00,34.3,26.6,-100.00,NNW,338,2.0,8.0,73,0.00,,,0.00,meteohub,2013-03-02 02:57:00,
2013-03-01 22:02:00,33.8,26.1,-100.00,East,90,1.0,8.0,73,0.00,,,0.00,meteohub,2013-03-02 03:02:00,
2013-03-01 22:07:00,33.3,26.2,-100.00,NW,312,3.0,6.0,75,0.00,,,0.00,meteohub,2013-03-02 03:07:00,
2013-03-01 22:12:00,34.3,27.3,-100.00,NNW,338,5.0,7.0,75,0.00,,,0.00,meteohub,2013-03-02 03:12:00,
2013-03-01 22:17:00,33.8,26.8,-100.00,NW,310,4.0,7.0,75,0.00,,,0.00,meteohub,2013-03-02 03:17:00,
2013-03-01 22:22:00,33.6,26.6,-100.00,WNW,298,3.0,7.0,75,0.00,,,0.00,meteohub,2013-03-02 03:22:00,
2013-03-01 22:27:00,34.2,27.1,-100.00,NNE,23,2.0,6.0,75,0.00,,,0.00,meteohub,2013-03-02 03:27:00,
2013-03-01 22:32:00,34.3,27.5,-100.00,North,358,5.0,7.0,76,0.00,,,0.00,meteohub,2013-03-02 03:32:00,
2013-03-01 22:37:00,33.8,27.0,-100.00,NNW,341,2.0,7.0,76,0.00,,,0.00,meteohub,2013-03-02 03:37:00,
2013-03-01 22:42:00,34.3,27.5,-100.00,NNE,12,0.0,7.0,76,0.00,,,0.00,meteohub,2013-03-02 03:42:00,
2013-03-01 22:48:00,34.2,27.3,-100.00,North,357,3.0,7.0,76,0.00,,,0.00,meteohub,2013-03-02 03:48:00,
2013-03-01 22:53:00,34.0,27.0,-100.00,North,352,1.0,7.0,75,0.00,,,0.00,meteohub,2013-03-02 03:53:00,
2013-03-01 22:58:00,33.8,26.4,-100.00,North,352,4.0,7.0,74,0.00,,,0.00,meteohub,2013-03-02 03:58:00,
2013-03-01 23:03:00,34.0,27.0,-100.00,ENE,66,3.0,8.0,75,0.00,,,0.00,meteohub,2013-03-02 04:03:00,
2013-03-01 23:08:00,34.3,27.0,-100.00,North,358,4.0,9.0,74,0.00,,,0.00,meteohub,2013-03-02 04:08:00,
2013-03-01 23:13:00,33.8,26.8,-100.00,North,352,3.0,11.0,75,0.00,,,0.00,meteohub,2013-03-02 04:13:00,
2013-03-01 23:18:00,34.0,27.1,-100.00,NW,320,0.0,11.0,76,0.00,,,0.00,meteohub,2013-03-02 04:18:00,
2013-03-01 23:23:00,33.4,26.8,-100.00,NNW,337,2.0,11.0,76,0.00,,,0.00,meteohub,2013-03-02 04:23:00,
2013-03-01 23:28:00,33.8,27.0,-100.00,NW,324,3.0,9.0,76,0.00,,,0.00,meteohub,2013-03-02 04:28:00,
2013-03-01 23:33:00,33.8,27.0,-100.00,NNW,347,2.0,9.0,76,0.00,,,0.00,meteohub,2013-03-02 04:33:00,
2013-03-01 23:38:00,34.0,27.1,-100.00,North,5,0.0,9.0,76,0.00,,,0.00,meteohub,2013-03-02 04:38:00,
2013-03-01 23:43:00,34.0,27.1,-100.00,NW,310,3.0,6.0,76,0.00,,,0.00,meteohub,2013-03-02 04:43:00,
2013-03-01 23:48:00,33.8,27.0,-100.00,North,354,3.0,5.0,76,0.00,,,0.00,meteohub,2013-03-02 04:48:00,
2013-03-01 23:53:00,33.8,27.0,-100.00,NW,307,3.0,6.0,76,0.00,,,0.00,meteohub,2013-03-02 04:53:00,
2013-03-01 23:59:00,33.8,27.0,-100.00,NW,309,3.0,8.0,76,0.00,,,0.00,meteohub,2013-03-02 04:59:00,